Location: Recife
(8.0585°S, 34.8848°W)
Time: 22:34:44
(UTC-03:00)

A-11 Canister half - Pass Details

Date: 18 April 2026
Orbit: 1515 x 1684 km, 47.2° (Epoch: 12 May)

Event Time Altitude Azimuth Distance (km) Brightness Sun altitude
Rises 13:31:45 0° 318° (NW) 4,878 12.2 51.8°
Reaches altitude 10° 13:34:52 10° 317° (NW) 3,908 11.9 51.2°
Maximum altitude 13:44:58 82° 230° (SW) 1,697 10.3 49.0°
Drops below altitude 10° 13:55:11 10° 142° (SE) 3,941 10.9 46.7°
Sets 13:58:21 0° 141° (SE) 4,921 11.3 46.0°
